SCP
-0 -1 -1 -1 -0 -0 -1 -1 -1 -1 -1 -0 -0 -0 -0 -0 -0 0 -0 -0 0 0 0 0 0 -0 -0 0 0 0 0 0 0 0 0 0 0 0 0 0 0 0 0
-0 -1 -1 -0 -0 -0 -0 -1 -1 -1 -1 -0 -0 -0 -0 -0 -0 0 0 0 0 0 0 0 0 -0 0 0 0 0 0 0 0 0 0 0 0 0 0 0 -0 0 0
-0 -0 -1 -1 -0 -0 -0 -1 -1 -1 -1 -0 -0 -0 -0 -0 0 0 0 0 0 0 0 0 0 -0 0 0 0 0 0 0 0 0 0 0 0 0 0 0 0 0 0
-0 -0 -0 -1 -1 -0 -0 -1 -1 -1 -1 -1 -0 -0 -0 -0 0 0 0 0 0 0 0 0 0 0 0 0 0 0 0 0 0 0 0 0 0 0 0 0 0 0 0
0 0 -0 -0 -1 -0 -0 -0 -1 -1 -1 -1 -0 -0 -0 0 0 0 0 0 0 0 0 -0 -0 0 0 0 0 0 0 0 0 0 0 0 0 0 0 0 0 0 0
0 0 -0 0 -0 -0 -0 -0 -0 -1 -0 -0 -0 -0 -0 0 0 0 0 0 0 0 0 -0 -0 -0 0 0 0 0 0 0 0 0 0 0 0 0 0 0 0 0 0
0 0 0 0 0 -0 -0 0 0 -0 -0 -0 -0 -0 0 0 0 0 0 0 0 0 0 -0 -0 0 0 0 0 0 0 0 0 0 0 0 0 0 0 0 0 0 0
0 0 0 0 0 0 0 0 0 0 -0 -0 -0 0 0 0 0 0 0 0 0 0 0 0 -0 -0 -0 -0 0 0 0 0 0 0 0 0 0 0 0 0 0 0 0
0 0 1 0 0 1 0 0 0 0 0 0 -0 -0 0 0 -0 -0 -0 -0 -0 -0 0 -0 -0 -0 -0 -0 0 0 0 0 -0 0 0 0 0 0 0 0 0 0 0
0 0 0 1 0 0 0 1 0 0 0 0 -0 -0 -0 -0 -0 -0 -0 -0 0 0 0 0 -0 -0 -0 -0 -0 -0 -0 0 0 -0 0 0 0 0 0 0 0 1 1
0 0 0 1 1 0 0 0 1 0 0 0 0 -0 -0 -0 -0 -0 -0 0 0 0 0 0 0 -0 -0 -0 0 0 0 0 -0 0 0 0 0 0 0 0 0 0 1
0 0 0 1 1 1 0 0 0 0 0 0 -0 -0 -0 -0 -0 -0 -0 0 0 0 0 0 0 0 -0 -0 0 0 0 -0 -0 -0 -0 0 0 0 0 0 0 0 1
0 0 0 1 1 1 0 1 1 0 0 0 0 0 0 -0 -0 -0 -0 0 0 0 0 0 0 0 0 0 0 -0 -0 -0 -0 0 0 0 0 0 0 0 0 0 1
0 0 0 1 2 2 1 1 1 1 1 0 0 0 0 0 0 0 0 0 0 0 0 0 0 0 0 0 0 -0 -0 -0 -0 0 0 0 0 0 0 0 0 0 1
0 0 0 1 2 2 2 2 2 1 1 1 1 1 1 1 0 0 0 0 0 0 0 0 0 0 0 0 0 0 0 -0 -0 -0 0 0 0 0 0 0 0 0 1
0 0 1 1 2 2 2 3 4 5 2 1 1 1 1 1 1 0 0 0 0 0 0 0 0 0 0 0 0 0 0 0 0 0 -0 0 0 0 0 0 0 0 1
0 0 1 1 2 3 3 3 3 3 2 2 1 2 1 2 1 1 1 0 0 0 0 0 0 0 0 0 0 0 0 0 0 0 0 0 0 0 0 0 0 0 0
0 0 1 2 2 3 3 3 3 2 2 2 1 1 2 2 1 1 1 1 1 0 0 0 0 0 0 0 0 1 0 0 0 0 0 0 0 0 0 0 0 0 -0
0 0 1 1 1 2 4 3 3 3 2 1 1 1 1 2 1 2 1 1 1 1 0 0 0 0 0 1 1 1 1 1 1 0 1 1 1 0 1 1 0 -0 -0
0 0 1 1 1 2 3 4 2 2 2 2 3 2 2 2 1 2 2 2 2 1 1 0 1 0 1 1 1 1 1 1 1 1 1 1 1 1 1 1 -0 0 -0
0 0 0 1 2 4 4 4 4 3 2 2 2 3 2 2 1 2 3 3 3 2 2 2 1 1 1 1 1 1 1 1 1 1 1 1 2 1 2 1 0 0 0
0 0 0 1 2 2 4 6 4 5 3 2 2 3 3 2 2 2 4 4 4 3 4 3 2 1 1 1 2 3 1 1 1 2 1 2 3 1 1 1 0 0 0
0 0 0 1 2 4 5 5 7 6 5 4 3 3 3 2 2 2 3 4 6 6 4 5 4 3 1 3 4 5 5 2 2 1 2 2 3 2 2 4 3 2 2
0 0 0 0 1 3 4 5 7 7 5 3 2 2 3 2 2 2 4 3 4 3 3 4 4 4 6 7 7 7 7 5 4 5 1 1 2 2 2 1 1 2 1
0 0 0 0 1 2 5 6 6 5 4 4 3 4 4 3 2 2 2 2 4 4 6 5 3 4 5 4 3 2 2 1 4 5 2 1 0 0 1 1 1 1 1
0 0 0 0 1 1 3 3 5 7 5 4 4 4 4 5 4 3 3 3 5 5 4 5 4 2 1 1 1 1 0 1 0 1 1 1 1 0 0 1 -0 -0 -0
Wind_Speed_500mb
31 39 42 46 55 54 51 48 44 46 42 40 38 35 33 29 26 28 32 36 36 34 32 29 25 22 21 23 25 27 26 25 23 24 26 24 25 25 24 24 25 11 17
39 41 44 47 53 53 52 50 46 44 41 40 37 33 28 25 27 32 34 36 35 32 29 26 24 23 23 24 24 22 20 19 19 19 22 25 22 22 23 23 22 15 16
41 44 47 49 52 53 52 49 47 44 42 43 38 33 26 25 30 34 35 35 32 29 26 25 23 23 23 24 22 19 16 16 14 17 19 10 8 21 23 22 21 19 19
40 46 50 48 51 51 50 47 44 46 46 47 41 33 27 29 33 35 35 34 31 29 26 25 23 23 22 22 20 18 16 14 14 12 15 6 5 14 20 21 22 20 18
40 45 50 49 50 49 47 43 44 47 51 49 43 33 30 32 36 36 36 34 31 29 27 24 23 22 22 20 18 16 14 12 11 10 1 1 3 5 9 12 16 19 19
39 42 44 49 49 48 46 43 44 44 53 51 43 36 34 36 38 37 36 33 31 28 25 23 21 20 19 17 14 12 10 9 6 1 2 4 1 9 4 6 8 11 13
34 38 45 49 48 48 48 45 44 46 53 50 44 38 38 39 38 37 36 33 30 27 24 21 20 18 16 14 11 8 6 4 2 8 6 5 5 5 7 6 5 5 8
34 37 45 51 49 47 48 48 47 50 52 51 48 43 41 41 40 39 36 34 31 27 24 21 19 16 13 11 9 6 4 3 3 9 8 8 10 9 9 10 10 9 7
32 36 38 52 55 51 49 49 49 49 51 53 52 48 44 43 41 39 37 34 31 28 25 22 18 15 13 10 9 7 6 6 6 10 7 8 13 10 11 13 14 13 12
34 36 38 47 56 58 56 53 50 50 51 50 53 52 49 46 44 41 38 35 32 29 25 22 19 16 14 12 11 11 9 9 7 13 9 9 10 8 9 15 18 16 16
37 40 41 45 50 53 49 58 55 51 51 51 52 54 51 47 45 44 41 39 34 31 28 24 21 18 15 14 14 14 14 10 16 14 11 16 9 9 11 16 20 18 16
39 41 41 44 46 47 47 48 59 56 55 55 58 59 56 48 35 32 37 40 37 33 30 26 23 20 17 13 16 17 17 18 17 15 11 16 13 15 15 17 20 20 17
41 39 43 45 46 47 46 44 48 48 51 58 60 62 62 45 40 43 31 44 41 38 33 29 26 22 18 18 17 17 17 15 12 12 14 13 13 14 16 17 18 19 17
41 43 46 48 48 55 47 47 43 46 48 49 58 64 53 54 48 41 33 29 39 30 32 26 20 24 24 25 24 21 18 15 12 11 14 14 15 16 18 19 20 19 20
43 46 49 51 52 53 62 50 50 50 50 49 52 67 64 52 55 52 44 37 30 29 29 29 27 26 23 21 19 20 20 18 19 15 14 14 17 17 19 20 21 23 23
44 48 50 54 58 58 61 66 67 68 54 56 52 58 75 72 67 60 61 55 47 36 30 27 25 25 23 19 20 21 22 21 21 20 17 17 15 17 18 21 23 24 23
42 49 53 56 56 64 66 69 69 65 66 57 58 69 75 76 74 70 64 59 51 49 44 38 36 31 29 24 22 23 23 24 23 24 23 18 18 18 17 18 22 24 22
29 40 46 53 58 65 63 67 63 60 68 58 54 57 78 80 76 73 68 67 55 50 44 41 36 25 24 21 21 20 22 25 29 29 27 24 21 16 22 17 16 19 20
40 41 43 48 51 63 71 66 58 54 57 53 52 57 62 79 79 75 68 58 62 58 50 45 39 30 27 23 23 22 23 25 30 29 28 29 25 10 8 8 7 13 22
46 54 55 53 63 64 60 63 53 56 56 55 61 55 54 58 72 75 66 61 68 59 47 51 47 38 29 27 25 27 26 30 30 26 26 22 15 5 7 13 11 16 22
52 56 65 68 71 71 64 61 61 65 59 57 58 59 56 55 67 73 66 67 66 58 55 54 53 50 37 29 23 27 25 28 28 24 22 15 10 6 8 11 21 23 34
50 58 65 76 73 74 75 78 63 60 55 53 51 56 62 62 61 66 74 59 59 56 63 59 59 39 34 29 26 24 19 19 19 22 27 18 13 20 22 22 20 32 47
40 44 55 71 83 83 82 66 59 48 49 54 56 59 67 68 65 63 73 68 54 57 44 57 56 58 38 30 31 22 13 8 15 16 16 23 20 22 24 24 38 40 52
46 40 41 51 71 72 67 67 70 68 64 64 56 53 55 60 72 78 74 77 73 69 57 37 36 41 46 35 32 34 27 18 7 18 35 26 32 38 43 47 46 46 51
42 44 43 45 50 66 67 74 72 65 59 46 47 49 51 53 57 62 70 67 64 59 54 44 35 37 48 49 48 35 26 26 19 21 46 57 43 43 40 39 44 50 64
41 42 43 44 46 51 63 71 74 73 66 52 51 49 45 44 50 60 64 69 69 59 57 59 55 48 49 52 61 41 55 89 88 56 67 82 80 77 66 55 51 70 57
Wind_Direction_500mb
167 177 178 170 167 171 174 173 170 169 166 163 158 153 153 157 159 157 150 144 142 142 142 142 141 139 130 123 123 119 111 105 98 91 86 82 80 78 76 73 72 49 50
165 178 179 176 173 175 178 178 178 176 176 172 164 158 160 163 163 159 153 150 150 151 150 150 147 141 132 130 127 115 110 109 103 93 90 77 76 80 79 78 82 77 69
164 174 179 179 178 179 184 185 186 187 186 180 172 165 168 168 166 162 161 159 162 161 160 155 149 143 138 134 129 123 118 115 105 92 85 92 71 77 78 75 75 72 72
166 174 179 181 180 184 186 187 189 190 191 183 178 174 178 174 172 168 165 165 168 168 164 158 153 149 142 136 133 131 122 109 95 99 63 109 92 70 74 72 71 66 66
169 175 182 183 184 185 185 184 186 191 190 184 182 184 185 182 175 172 170 170 171 170 166 161 158 153 147 146 142 135 127 112 92 80 105 88 153 315 54 66 66 63 57
172 178 187 187 186 187 186 185 184 186 186 186 188 191 193 187 181 176 175 175 175 173 169 165 159 157 157 159 153 151 138 125 111 92 299 317 85 245 341 32 47 53 53
175 177 188 191 190 189 188 189 188 188 190 193 195 200 198 191 187 184 181 180 181 180 178 171 164 164 164 167 171 170 168 159 150 263 265 301 262 280 302 317 330 4 29
181 179 190 192 196 195 194 194 195 195 198 202 203 207 204 197 192 190 188 187 187 185 185 178 170 167 173 178 188 202 221 255 271 259 265 268 268 282 302 311 311 311 320
188 184 189 196 197 198 201 201 201 204 206 210 210 208 206 202 199 196 195 194 194 193 192 184 179 181 188 197 212 227 252 265 249 263 282 283 274 282 304 316 313 303 291
191 193 193 195 203 200 202 206 207 208 209 212 213 210 207 205 204 202 201 201 200 200 200 195 190 193 204 218 237 249 257 267 265 254 280 259 263 264 290 307 310 303 286
198 198 198 197 201 200 203 207 207 209 211 211 215 214 209 209 210 208 206 206 206 205 206 204 203 206 217 234 249 263 269 269 253 259 259 273 294 289 295 300 304 306 287
212 206 207 203 200 200 201 205 207 210 210 211 213 214 212 208 208 206 216 211 208 210 212 212 214 219 224 238 271 266 267 248 254 252 252 278 297 302 301 299 300 302 295
226 217 212 213 206 202 203 204 204 204 207 210 210 211 211 211 212 207 210 212 212 213 215 220 222 229 241 235 245 248 249 252 246 258 258 288 306 313 317 310 299 297 298
228 227 219 215 214 211 206 209 206 207 205 206 206 208 204 207 211 208 206 211 215 216 214 218 226 228 241 256 254 243 242 235 251 250 263 284 299 313 315 315 308 303 293
236 231 225 217 217 215 211 211 206 209 209 207 207 210 207 210 211 213 211 207 213 215 223 221 224 240 251 253 249 243 238 244 248 251 258 280 300 314 313 313 309 304 301
243 234 225 224 223 222 221 216 224 219 213 210 209 213 215 216 218 216 220 221 222 217 220 225 236 245 244 246 253 249 249 247 255 259 271 284 292 305 314 319 320 314 305
255 241 232 232 223 231 234 226 226 221 216 215 212 218 222 221 222 221 221 223 225 230 234 237 237 245 246 245 257 259 258 265 266 265 275 285 291 306 301 322 325 321 321
274 242 241 238 225 235 234 228 222 221 225 218 216 219 224 225 224 223 226 227 220 225 231 236 245 239 248 245 250 255 266 268 270 273 275 281 290 291 311 329 351 353 357
277 268 243 238 232 241 238 232 221 221 220 219 220 220 228 226 226 229 229 231 232 233 234 235 237 238 241 248 257 259 268 270 270 271 273 275 289 286 297 301 335 21 28
282 271 263 245 245 240 229 229 221 219 221 216 218 221 220 225 226 229 226 228 234 232 231 239 239 238 240 248 247 261 261 268 275 269 265 268 258 200 287 247 292 322 1
276 272 265 260 251 242 229 222 218 220 218 219 217 218 218 223 226 227 226 234 241 237 235 240 242 245 239 241 247 256 261 262 261 255 238 220 188 195 155 297 327 295 319
280 270 267 256 250 246 240 235 224 221 220 221 218 221 228 230 229 231 231 217 238 233 236 237 246 236 237 230 226 242 251 263 235 216 217 246 239 235 287 306 306 309 319
280 286 274 258 245 243 237 229 223 219 219 224 221 223 229 230 229 232 234 226 225 231 229 235 236 237 228 221 220 224 204 240 269 249 219 224 232 240 270 281 294 305 308
280 281 278 261 251 235 230 222 218 215 219 228 226 226 227 235 228 231 233 234 233 239 230 229 230 222 208 211 210 224 214 206 176 319 310 269 264 263 272 285 297 295 306
289 287 282 274 253 239 227 221 223 221 225 223 226 224 227 235 234 228 233 236 227 231 239 230 222 227 225 210 208 213 222 250 255 286 284 288 278 284 285 291 285 290 305
306 295 283 273 263 238 225 225 218 221 222 218 222 215 213 214 227 225 226 230 237 239 234 235 237 230 229 227 235 226 278 285 272 275 288 277 276 277 281 286 294 298 309
Wind_Speed_850mb
31 39 42 46 55 54 51 48 44 46 42 40 38 35 33 29 26 28 32 36 36 34 32 29 25 22 21 23 25 27 26 25 23 24 26 24 25 25 24 24 25 11 17
39 41 44 47 53 53 52 50 46 44 41 40 37 33 28 25 27 32 34 36 35 32 29 26 24 23 23 24 24 22 20 19 19 19 22 25 22 22 23 23 22 15 16
41 44 47 49 52 53 52 49 47 44 42 43 38 33 26 25 30 34 35 35 32 29 26 25 23 23 23 24 22 19 16 16 14 17 19 10 8 21 23 22 21 19 19
40 46 50 48 51 51 50 47 44 46 46 47 41 33 27 29 33 35 35 34 31 29 26 25 23 23 22 22 20 18 16 14 14 12 15 6 5 14 20 21 22 20 18
40 45 50 49 50 49 47 43 44 47 51 49 43 33 30 32 36 36 36 34 31 29 27 24 23 22 22 20 18 16 14 12 11 10 1 1 3 5 9 12 16 19 19
39 42 44 49 49 48 46 43 44 44 53 51 43 36 34 36 38 37 36 33 31 28 25 23 21 20 19 17 14 12 10 9 6 1 2 4 1 9 4 6 8 11 13
34 38 45 49 48 48 48 45 44 46 53 50 44 38 38 39 38 37 36 33 30 27 24 21 20 18 16 14 11 8 6 4 2 8 6 5 5 5 7 6 5 5 8
34 37 45 51 49 47 48 48 47 50 52 51 48 43 41 41 40 39 36 34 31 27 24 21 19 16 13 11 9 6 4 3 3 9 8 8 10 9 9 10 10 9 7
32 36 38 52 55 51 49 49 49 49 51 53 52 48 44 43 41 39 37 34 31 28 25 22 18 15 13 10 9 7 6 6 6 10 7 8 13 10 11 13 14 13 12
34 36 38 47 56 58 56 53 50 50 51 50 53 52 49 46 44 41 38 35 32 29 25 22 19 16 14 12 11 11 9 9 7 13 9 9 10 8 9 15 18 16 16
37 40 41 45 50 53 49 58 55 51 51 51 52 54 51 47 45 44 41 39 34 31 28 24 21 18 15 14 14 14 14 10 16 14 11 16 9 9 11 16 20 18 16
39 41 41 44 46 47 47 48 59 56 55 55 58 59 56 48 35 32 37 40 37 33 30 26 23 20 17 13 16 17 17 18 17 15 11 16 13 15 15 17 20 20 17
41 39 43 45 46 47 46 44 48 48 51 58 60 62 62 45 40 43 31 44 41 38 33 29 26 22 18 18 17 17 17 15 12 12 14 13 13 14 16 17 18 19 17
41 43 46 48 48 55 47 47 43 46 48 49 58 64 53 54 48 41 33 29 39 30 32 26 20 24 24 25 24 21 18 15 12 11 14 14 15 16 18 19 20 19 20
43 46 49 51 52 53 62 50 50 50 50 49 52 67 64 52 55 52 44 37 30 29 29 29 27 26 23 21 19 20 20 18 19 15 14 14 17 17 19 20 21 23 23
44 48 50 54 58 58 61 66 67 68 54 56 52 58 75 72 67 60 61 55 47 36 30 27 25 25 23 19 20 21 22 21 21 20 17 17 15 17 18 21 23 24 23
42 49 53 56 56 64 66 69 69 65 66 57 58 69 75 76 74 70 64 59 51 49 44 38 36 31 29 24 22 23 23 24 23 24 23 18 18 18 17 18 22 24 22
29 40 46 53 58 65 63 67 63 60 68 58 54 57 78 80 76 73 68 67 55 50 44 41 36 25 24 21 21 20 22 25 29 29 27 24 21 16 22 17 16 19 20
40 41 43 48 51 63 71 66 58 54 57 53 52 57 62 79 79 75 68 58 62 58 50 45 39 30 27 23 23 22 23 25 30 29 28 29 25 10 8 8 7 13 22
46 54 55 53 63 64 60 63 53 56 56 55 61 55 54 58 72 75 66 61 68 59 47 51 47 38 29 27 25 27 26 30 30 26 26 22 15 5 7 13 11 16 22
52 56 65 68 71 71 64 61 61 65 59 57 58 59 56 55 67 73 66 67 66 58 55 54 53 50 37 29 23 27 25 28 28 24 22 15 10 6 8 11 21 23 34
50 58 65 76 73 74 75 78 63 60 55 53 51 56 62 62 61 66 74 59 59 56 63 59 59 39 34 29 26 24 19 19 19 22 27 18 13 20 22 22 20 32 47
40 44 55 71 83 83 82 66 59 48 49 54 56 59 67 68 65 63 73 68 54 57 44 57 56 58 38 30 31 22 13 8 15 16 16 23 20 22 24 24 38 40 52
46 40 41 51 71 72 67 67 70 68 64 64 56 53 55 60 72 78 74 77 73 69 57 37 36 41 46 35 32 34 27 18 7 18 35 26 32 38 43 47 46 46 51
42 44 43 45 50 66 67 74 72 65 59 46 47 49 51 53 57 62 70 67 64 59 54 44 35 37 48 49 48 35 26 26 19 21 46 57 43 43 40 39 44 50 64
41 42 43 44 46 51 63 71 74 73 66 52 51 49 45 44 50 60 64 69 69 59 57 59 55 48 49 52 61 41 55 89 88 56 67 82 80 77 66 55 51 70 57
Wind_Direction_850mb
167 177 178 170 167 171 174 173 170 169 166 163 158 153 153 157 159 157 150 144 142 142 142 142 141 139 130 123 123 119 111 105 98 91 86 82 80 78 76 73 72 49 50
165 178 179 176 173 175 178 178 178 176 176 172 164 158 160 163 163 159 153 150 150 151 150 150 147 141 132 130 127 115 110 109 103 93 90 77 76 80 79 78 82 77 69
164 174 179 179 178 179 184 185 186 187 186 180 172 165 168 168 166 162 161 159 162 161 160 155 149 143 138 134 129 123 118 115 105 92 85 92 71 77 78 75 75 72 72
166 174 179 181 180 184 186 187 189 190 191 183 178 174 178 174 172 168 165 165 168 168 164 158 153 149 142 136 133 131 122 109 95 99 63 109 92 70 74 72 71 66 66
169 175 182 183 184 185 185 184 186 191 190 184 182 184 185 182 175 172 170 170 171 170 166 161 158 153 147 146 142 135 127 112 92 80 105 88 153 315 54 66 66 63 57
172 178 187 187 186 187 186 185 184 186 186 186 188 191 193 187 181 176 175 175 175 173 169 165 159 157 157 159 153 151 138 125 111 92 299 317 85 245 341 32 47 53 53
175 177 188 191 190 189 188 189 188 188 190 193 195 200 198 191 187 184 181 180 181 180 178 171 164 164 164 167 171 170 168 159 150 263 265 301 262 280 302 317 330 4 29
181 179 190 192 196 195 194 194 195 195 198 202 203 207 204 197 192 190 188 187 187 185 185 178 170 167 173 178 188 202 221 255 271 259 265 268 268 282 302 311 311 311 320
188 184 189 196 197 198 201 201 201 204 206 210 210 208 206 202 199 196 195 194 194 193 192 184 179 181 188 197 212 227 252 265 249 263 282 283 274 282 304 316 313 303 291
191 193 193 195 203 200 202 206 207 208 209 212 213 210 207 205 204 202 201 201 200 200 200 195 190 193 204 218 237 249 257 267 265 254 280 259 263 264 290 307 310 303 286
198 198 198 197 201 200 203 207 207 209 211 211 215 214 209 209 210 208 206 206 206 205 206 204 203 206 217 234 249 263 269 269 253 259 259 273 294 289 295 300 304 306 287
212 206 207 203 200 200 201 205 207 210 210 211 213 214 212 208 208 206 216 211 208 210 212 212 214 219 224 238 271 266 267 248 254 252 252 278 297 302 301 299 300 302 295
226 217 212 213 206 202 203 204 204 204 207 210 210 211 211 211 212 207 210 212 212 213 215 220 222 229 241 235 245 248 249 252 246 258 258 288 306 313 317 310 299 297 298
228 227 219 215 214 211 206 209 206 207 205 206 206 208 204 207 211 208 206 211 215 216 214 218 226 228 241 256 254 243 242 235 251 250 263 284 299 313 315 315 308 303 293
236 231 225 217 217 215 211 211 206 209 209 207 207 210 207 210 211 213 211 207 213 215 223 221 224 240 251 253 249 243 238 244 248 251 258 280 300 314 313 313 309 304 301
243 234 225 224 223 222 221 216 224 219 213 210 209 213 215 216 218 216 220 221 222 217 220 225 236 245 244 246 253 249 249 247 255 259 271 284 292 305 314 319 320 314 305
255 241 232 232 223 231 234 226 226 221 216 215 212 218 222 221 222 221 221 223 225 230 234 237 237 245 246 245 257 259 258 265 266 265 275 285 291 306 301 322 325 321 321
274 242 241 238 225 235 234 228 222 221 225 218 216 219 224 225 224 223 226 227 220 225 231 236 245 239 248 245 250 255 266 268 270 273 275 281 290 291 311 329 351 353 357
277 268 243 238 232 241 238 232 221 221 220 219 220 220 228 226 226 229 229 231 232 233 234 235 237 238 241 248 257 259 268 270 270 271 273 275 289 286 297 301 335 21 28
282 271 263 245 245 240 229 229 221 219 221 216 218 221 220 225 226 229 226 228 234 232 231 239 239 238 240 248 247 261 261 268 275 269 265 268 258 200 287 247 292 322 1
276 272 265 260 251 242 229 222 218 220 218 219 217 218 218 223 226 227 226 234 241 237 235 240 242 245 239 241 247 256 261 262 261 255 238 220 188 195 155 297 327 295 319
280 270 267 256 250 246 240 235 224 221 220 221 218 221 228 230 229 231 231 217 238 233 236 237 246 236 237 230 226 242 251 263 235 216 217 246 239 235 287 306 306 309 319
280 286 274 258 245 243 237 229 223 219 219 224 221 223 229 230 229 232 234 226 225 231 229 235 236 237 228 221 220 224 204 240 269 249 219 224 232 240 270 281 294 305 308
280 281 278 261 251 235 230 222 218 215 219 228 226 226 227 235 228 231 233 234 233 239 230 229 230 222 208 211 210 224 214 206 176 319 310 269 264 263 272 285 297 295 306
289 287 282 274 253 239 227 221 223 221 225 223 226 224 227 235 234 228 233 236 227 231 239 230 222 227 225 210 208 213 222 250 255 286 284 288 278 284 285 291 285 290 305
306 295 283 273 263 238 225 225 218 221 222 218 222 215 213 214 227 225 226 230 237 239 234 235 237 230 229 227 235 226 278 285 272 275 288 277 276 277 281 286 294 298 309